{"data":{"norad_id":62515,"intl_designator":"2025-004E","name":"STARLINK-11508 [DTC]","alt_names":[],"object_type":"PAYLOAD","status":"ACTIVE","operator":null,"country":"US","launch_date":"2025-01-08","launch_site_code":"AFETR","launch_vehicle":null,"mission":null,"orbit_class":"UNKNOWN","rcs_meters":null,"size_class":null,"mass_kg":null,"dimensions":null,"purposes":["comms"],"wikipedia_slug":null,"has_3d_model":false,"image_url":null,"decayed_at":null,"tle_current":{"epoch":"2026-09-21T11:34:26.031936Z","epoch_age_seconds":89663,"freshness":"FRESH","line1":"1 62515U 25004E   26264.48224574  .00218010  00000+0  16419-2 0  9990","line2":"2 62515  42.9993 330.3749 0001794 194.0037 166.0781 15.71076707 98008","mean_motion":15.71076707,"eccentricity":0.0001794,"inclination_deg":42.9993,"raan_deg":330.3749,"arg_perigee_deg":194.0037,"mean_anomaly_deg":166.0781,"bstar":0.0016419,"rev_number":9800,"period_min":91.656886871533,"perigee_km":354.61052197432,"apogee_km":357.02666524131,"semimajor_km":6733.9555936078,"source":"CELESTRAK","updated_at":"2026-09-22T09:00:49.622063Z"}}}